THOR ABLESTAR DEB, 48827

Orbit data source: Space-Track

THOR ABLESTAR DEB, 48827 is space debris in LEO originally from a launch on Thu, 29 Jun 1961 UTC launched from the Air Force Eastern Test Range (AFETR). Debris objects in space refer to the collection of defunct objects orbiting the Earth. Examples of debris include non-operational satellites, rocket bodies, and fragments generated from explosions, collisions, or faulty payload assembly.

Loading next visibility...
Identifier
48827, 1961-015NF
Orbit
LEO
Country
Flag of USUS
Related business
Manufacturer
Unknown
Mission
Spacecraft
Bus & Motor
Unknown
Mass
Unknown
Launch date (UTC)
1961-06-29 (65 years ago)
Launch vehicle
Unknown
Launch site
Air Force Eastern Test Range (AFETR)
Object type
Payload
Rocket body
Debris
Shape & HBR
Unknown shape, 0.1 m
Radar Cross Section
Small (<0.1 m²)

Expand to show TLE details & history
Last TLE update: 8 hours ago

TLE from 8 hours ago
0 THOR ABLESTAR DEB
1 48827U 61015NF  26095.36832671  .00000362  00000-0  63284-3 0  9997
2 48827  68.1626 357.6385 0343266 199.5751 159.1859 13.31370930600169
Epoch: 2026-04-05T08:50Z
TLE epoch observation values (Epoch: 2026-04-05T08:50:23.427Z)
Latitude
-0.00007°
Longitude
31.36611°
Altitude
1,386.087 km
Speed
7.05 km/s
True Right ascension
23h 50m 33s
True Declination
0° 00' 00"
Sunlit
Object was in daylight at epoch
Visualization orbit readout
Latitude
Unknown
Longitude
Unknown
Altitude
Unknown
Speed
Unknown
Apparent Right ascension
Unknown
Apparent Declination
Unknown
Sunlit
N/A
Visualization observer readout
Local Sidereal Time
23:14:01
Azimuth
Unknown
Elevation
Unknown
Doppler factor
Unknown
Orbital elements
Apogee altitude
1,397.954 km
Perigee altitude
881.818 km
Semi-major axis
7,518.023 km
Eccentricity
0.03433
Inclination
68.1626°
RAAN
357.6385°
Arg. of periapsis
199.5751°
True anomaly
160.52953°
Mean anomaly
159.1859°
Eccentric anomaly
159.86299°
Mean motion
3.32957 °/min
Orbital period
108.12 mins
BSTAR
0.00063284
Loading maneuver chart data...
Computing Atmospheric mass density...

Documentation

Showing up to 5 results
|